Regional Weather Roundup
Issued by NWS

Home | Current Version | Previous Version | Text Only | Print | Product List | Glossary Off
Versions: 1 2 3 4 5 6 7 8 9 10 11 12 13 14 15 16 17 18 19 20 21 22 23 24 25 26 27 28 29 30 31 32 33 34 35 36 37 38 39 40 41 42 43 44 45 46 47 48 49 50

000
ASUS43 KLOT 190503
RWRIL

ILLINOIS REGIONAL WEATHER ROUNDUP
NATIONAL WEATHER SERVICE CHICAGO/ROMEOVILLE IL
1100 PM CST SAT FEB 18 2017

NOTE: "FAIR" INDICATES FEW OR NO CLOUDS BELOW 12,000 FEET WITH NO
SIGNIFICANT WEATHER AND/OR OBSTRUCTIONS TO VISIBILITY.

* THESE STATIONS ARE NOT UNDER NWS QUALITY CONTROL. THEY ALSO MAY NOT
  REPORT WEATHER SUCH AS PRECIPITATION OR FOG.

ILZ001-002-007-009-015-016-024-190600-
NORTHWEST ILLINOIS

CITY           SKY/WX    TMP DP  RH WIND       PRES   REMARKS
MOLINE         CLEAR     36  29  75 CALM      29.86R
STERLING*      CLEAR     38  36  92 CALM      29.86R
SAVANNA*       CLEAR     35  32  90 CALM      29.86S
$$

ILZ003-004-008-010-011-017-018-190600-
NORTH CENTRAL ILLINOIS

CITY           SKY/WX    TMP DP  RH WIND       PRES   REMARKS
ROCKFORD       CLEAR     39  33  79 CALM      29.87R
FREEPORT*      CLEAR     36  33  89 W3        29.88R
ROCHELLE*      CLEAR     37  35  92 CALM      29.86R
DE KALB*       CLEAR     46  38  74 NW6       29.86R
PERU*          CLEAR     45  33  63 NW8       29.86R
$$

ILZ005-006-012>014-019>023-190600-
NORTHEAST ILLINOIS

CITY           SKY/WX    TMP DP  RH WIND       PRES   REMARKS
CHICAGO-OHARE  CLEAR     44  36  73 NW3       29.83R
CHICAGO-MIDWAY CLEAR     47  34  60 CALM      29.83R
AURORA         CLEAR     35  32  88 NW7       29.86R WCI  29
LANSING*       CLEAR     39  37  95 CALM      29.84R
JOLIET*        CLEAR     40  34  81 CALM      29.85R
WAUKEGAN       CLEAR     37  34  89 W3        29.84R
DUPAGE AIRPORT CLEAR     40  33  76 CALM      29.84R
KANKAKEE*      CLEAR     38  34  85 CALM      29.85R
WHEELING       CLEAR     40  34  79 CALM      29.85R
MORRIS*        CLEAR     42  34  74 CALM      29.84R
ROMEOVILLE*    CLEAR     47  39  75 W6        29.84R
NORTHERLY ISL    N/A     46  31  56 W2          N/A
$$

LMZ740>746-190600-
SOUTHERN LAKE MICHIGAN

STATION/POSITION SKY/WX   TEMP    WIND        PRES    VSBY  WAVE
                          AIR SEA DIR/SP/G                  HT/PER
                          (F)     (DEG/KT/KT) (MB)    (MI)  (FT/S)
HARRISON CRIB              54     210/  3/  3   N/A
BURNHAM HARBOR             47      CALM  /  2   N/A
CALUMET HARBOR             45     250/  3/  3 1009.6R
BURNS HARBOR               41     250/  5/  6 1010.5R
MICHIGAN CITY              51     160/  3/  3   N/A
$$

ILZ025>027-034>036-040-047-049-050-058-095>099-190600-
WEST-CENTRAL ILLINOIS

CITY           SKY/WX    TMP DP  RH WIND       PRES   REMARKS
QUINCY         CLEAR     53  43  68 S5        29.86S
GALESBURG*     CLEAR     38  32  78 CALM        N/A
MACOMB*        CLEAR     40  35  83 CALM      29.88S
JACKSONVILLE*  CLEAR     47  42  83 S6        29.88S
PITTSFIELD*    CLEAR     45  39  80 S5        29.88S
$$

ILZ028>032-037-038-041>044-048-051>054-059>061-190600-
CENTRAL ILLINOIS

CITY           SKY/WX    TMP DP  RH WIND       PRES   REMARKS
PONTIAC        CLEAR     40  37  89 CALM      29.87R
BLOOMINGTON    CLEAR     46  42  86 SW8       29.88R
DECATUR        FOG       50  49  96 SW16      29.89R VSB 3/4
PEORIA         CLEAR     45  38  76 SE5       29.86R
LACON*         CLEAR     40  35  80 CALM      29.85S
LINCOLN*       CLEAR     43  42  95 CALM      29.89R
SPRINGFIELD    CLEAR     47  44  90 S6        29.89R
TAYLORVILLE    CLOUDY    49  49 100 CALM      29.91R FOG
$$

ILZ033-039-045-046-055>057-062-063-190600-
EAST-CENTRAL ILLINOIS

CITY           SKY/WX    TMP DP  RH WIND       PRES   REMARKS
CHAMPAIGN      MOCLDY    47  45  93 SW13      29.89R FOG
RANTOUL*       CLEAR     48  47  97 SW12      29.87S
MATTOON        CLOUDY    51  50  96 SW9       29.89R
PARIS*         CLOUDY    49  48  96 SW14      29.90S
$$

ILZ079-100>102-190600-
SOUTHWEST ILLINOIS

CITY           SKY/WX    TMP DP  RH WIND       PRES   REMARKS
ALTON          CLEAR     47  46  98 S6        29.91R
BELLEVILLE     CLEAR     48  48 100 CALM      29.90R
CAHOKIA*       FOG       46  44  93 SE6       29.90R VSB 1
SPARTA*        CLOUDY    51  50  95 S9        29.93S
$$

ILZ064>066-069>071-074>076-080>082-084>086-088>090-092>094-190600-
SOUTH-CENTRAL ILLINOIS

CITY           SKY/WX    TMP DP  RH WIND       PRES   REMARKS
CARBONDALE     CLOUDY    50  50 100 S6        29.94R
CAIRO*         FOG       46  46 100 CALM      29.95S VSB 1/4
EFFINGHAM*     CLOUDY    52  51  98 SW6       29.94R
MARION         CLOUDY    50  50 100 SW3       29.95R
MT. VERNON     CLOUDY    50  49  96 S10       29.93S
CENTRALIA*     CLOUDY    52  51  95 SW6       29.92R
SALEM*         CLOUDY    53  50  89 S9        29.91S
METROPOLIS*    FOG       49  49  99 CALM      29.96S VSB 1/2
$$

ILZ067-068-072-073-078-083-087-091-190600-
SOUTHEAST ILLINOIS

CITY           SKY/WX    TMP DP  RH WIND       PRES   REMARKS
LAWRENCEVILLE  FOG       41  40  96 S7        29.94R VSB 1/4
FLORA*         CLOUDY    51  50  95 SW12      29.93S
FAIRFIELD*     FOG       43  43 100 CALM      29.93R VSB 1/4
HARRISBURG*    FOG       44  44 100 SW3       29.95R VSB 1/4
ROBINSON*      PTCLDY    42  42 100 CALM      29.94S FOG
CARMI*         CLEAR     45  45 100 S7        29.94R FOG
$$

ABBREVIATIONS USED IN REMARKS
   TC - TEMPERATURE IN CELSIUS
  WCI - WIND CHILL INDEX
   HX - HEAT INDEX
  VSB - VISIBILITY
$$





USA.gov is the U.S. government's official web portal to all federal, state and local government web resources and services.